Flag for U.S.A. Weather past 2 weeks in Roanoke, Virginia, U.S.A.

Now
24 °F

Clear.


Feels Like: 24 °F
Forecast: 20 / 45 °F
Wind: No wind

Location: Roanoke Regional Airport

Current Time: Jan 29, 2015 at 1:54:44 AM

Latest Report: Jan 29, 2015 at 12:54 AM


Visibility: 10 mi

Pressure: 30.34 "Hg

Humidity: 65%

Dew point: 14 °F

Location of RoanokeLocation

Historic Weather in Roanoke — Graph

°F

Roanoke temperature yesterday

Maximum temperature yesterday: 43 °F (at 2:54 PM)
Minimum temperature yesterday: 22 °F (at 2:54 AM)
Average temperature yesterday: 31 °F

Past Weeks' High & Low Weather Summary

 TemperatureHumidityPressure
High63 °F (Jan 20, 1:54 PM)96% (Jan 23, 9:54 PM)30.42 "Hg (Jan 23, 9:54 PM)
Low22 °F (Jan 27, 6:54 AM)21% (Jan 27, 2:54 PM)29.59 "Hg (Jan 24, 8:54 AM)
Average38 °F60%30.04 "Hg
* Reported Jan 14 12:54 AM — Jan 29 12:54 AM, Roanoke, Weather by CustomWeather, © 2014

Note: Actual official high and low records may vary slightly from our data, if they occured in-between our weather recording intervals... More about our weather records

Advertising

Roanoke weather history for previous 24 hours

 ConditionsComfort  
Time TempWeatherWind HumidityBarometerVisibility
12:54 AM
Jan 29
24 °FClear.No wind65%30.34 "Hg10 mi
11:54 PM
Jan 28
25 °FClear.No wind60%30.35 "Hg10 mi
10:54 PM26 °FClear.3 mph57%30.35 "Hg10 mi
9:54 PM30 °FClear.5 mph49%30.34 "Hg10 mi
8:54 PM33 °FClear.No wind38%30.34 "Hg10 mi
7:54 PM34 °FClear.5 mph37%30.33 "Hg10 mi
6:54 PM36 °FClear.8 mph32%30.31 "Hg10 mi
5:54 PM40 °FClear.3 mph27%30.29 "Hg10 mi
4:54 PM42 °FSunny.5 mph25%30.27 "Hg10 mi
3:54 PM43 °FSunny.6 mph25%30.25 "Hg10 mi
2:54 PM43 °FSunny.9 mph22%30.24 "Hg10 mi
1:54 PM41 °FSunny.10 mph26%30.24 "Hg10 mi
12:54 PM39 °FSunny.10 mph26%30.25 "Hg10 mi
11:54 AM37 °FSunny.10 mph33%30.29 "Hg10 mi
10:54 AM34 °FSunny.12 mph42%30.30 "Hg10 mi
9:54 AM31 °FSunny.14 mph49%30.29 "Hg10 mi
8:54 AM27 °FSunny.9 mph55%30.28 "Hg10 mi
7:54 AM23 °FSunny.8 mph63%30.26 "Hg10 mi
6:54 AM23 °FClear.10 mph63%30.23 "Hg10 mi
5:54 AM23 °FClear.3 mph60%30.19 "Hg10 mi
4:54 AM23 °FPassing clouds.No wind60%30.18 "Hg10 mi
3:54 AM24 °FPassing clouds.9 mph57%30.14 "Hg10 mi
2:54 AM22 °FPassing clouds.7 mph62%30.13 "Hg10 mi
1:54 AM23 °FPassing clouds.12 mph60%30.12 "Hg10 mi
Weather by CustomWeather, © 2014

See weather overviewHow to use our weather pages